Regional Weather Roundup
Issued by NWS

Home | Current Version | Previous Version | Text Only | Print | Product List | Glossary Off
Versions: 1 2 3 4 5 6 7 8 9 10 11 12 13 14 15 16 17 18 19 20 21 22 23 24 25 26 27 28 29 30 31 32 33 34 35 36 37 38 39 40 41 42 43 44 45 46 47 48 49 50

000
ASUS45 KCYS 280710
RWRWY

WYOMING REGIONAL WEATHER ROUNDUP
NATIONAL WEATHER SERVICE CHEYENNE WY
100 AM MDT THU AUG 28 2014

NOTE:  "FAIR" INDICATES FEW OR NO CLOUDS BELOW 12,000 FEET
WITH NO SIGNIFICANT WEATHER AND/OR OBSTRUCTIONS TO VISIBILITY.

WYZ001-280800-
YELLOWSTONE NATIONAL PARK

CITY           SKY/WX    TMP DP  RH WIND       PRES   REMARKS
LK YELLOWSTONE   N/A     42  38  85 CALM      30.38R
W YELLOWSTONE  NOT AVBL

$$
WYZ002>013-054>058-071-098>099-280800-
NORTHERN WYOMING

CITY           SKY/WX    TMP DP  RH WIND       PRES   REMARKS
JACKSON        CLEAR     46  43  87 N6        30.28S
CODY           CLEAR     61  48  63 SW5       30.14S
GREYBULL       CLEAR     59  51  75 E6        30.08F
WORLAND        MOCLDY    57  53  86 S7        30.10R
SHERIDAN       PTCLDY    57  50  77 CALM      30.06S
BUFFALO        PTCLDY    58  49  72 SW8       30.12F
GILLETTE       MOCLDY    60  54  80 SW9       30.08F
HULETT         FAIR      59  55  88 MISG      30.11
NEWCASTLE      FAIR      59  59 100 N5        30.10

$$
WYZ014>020-022>026-101>103-280800-
CENTRAL WYOMING

CITY           SKY/WX    TMP DP  RH WIND       PRES   REMARKS
BIG PINEY      PTCLDY    44  42  93 NE5       30.31F
PINEDALE       MOSUNNY   45  45 100 CALM      30.32S FOG
DUBOIS         FAIR      50  37  62 NW10      30.29S
LANDER         MOCLDY    56  50  80 W6        30.18F
RIVERTON       CLOUDY    55  52  89 CALM      30.19F
CASPER         CLOUDY    55  53  93 SW5       30.17S
DOUGLAS        CLOUDY    59  56  89 CALM      30.15S

$$
WYZ021-027>030-104>119-280800-
SOUTHERN WYOMING

CITY           SKY/WX    TMP DP  RH WIND       PRES   REMARKS
EVANSTON       CLEAR     47  45  93 S9        30.35S
KEMMERER       MOSUNNY   48  45  87 NW9       30.34S
FORT BRIDGER   CLOUDY    54  48  80 W14       30.35S
ROCK SPRINGS   CLOUDY    49  46  90 SW10      30.29F
DIXON          CLOUDY    53  51  93 SW3       30.32S
RAWLINS        CLOUDY    51  49  92 SW9       30.27S
SARATOGA       CLOUDY    50  46  87 CALM      30.30R
LARAMIE        MOCLDY    45  42  89 E6        30.27S
CHEYENNE       CLOUDY    53  46  77 N8        30.21R
TORRINGTON     CLOUDY    60  59  96 NW3       30.07F
PINE BLUFFS    FAIR      54  52  94 W7        30.14F

$$


USA.gov is the U.S. government's official web portal to all federal, state and local government web resources and services.